• In Hungary
  • List of Countries
  • For 7 days
  • Water Temperature
  • Satellite Maps
  • Weather Map
  • News
  • Weather Widgets
  • user-avatar
    Login

    Hourly Weather Muhino

    Today, 15 August, Wednesday

    Time Temperature Precipitation Wind Pressure Humidity
    00:00 +14°C° 0 mm 1 mps 746 mmHg 84%
    01:00 +14°C° 0 mm 2 mps 746 mmHg 84%
    02:00 +14°C° 0 mm 2 mps 746 mmHg 87%
    03:00 +14°C° 0 mm 2 mps 746 mmHg 88%
    04:00 +14°C° 0 mm 2 mps 745 mmHg 89%
    05:00 +15°C° 0 mm 2 mps 745 mmHg 89%
    06:00 +16°C° 0.2 mm 2 mps 745 mmHg 87%
    07:00 +18°C° 0.2 mm 2 mps 744 mmHg 85%
    08:00 +19°C° 0 mm 2 mps 744 mmHg 82%
    09:00 +20°C° 0.4 mm 3 mps 743 mmHg 81%
    10:00 +21°C° 0.4 mm 3 mps 743 mmHg 80%
    11:00 +22°C° 0.4 mm 3 mps 743 mmHg 79%
    12:00 +22°C° 1.4 mm 3 mps 742 mmHg 81%
    13:00 +22°C° 1.4 mm 3 mps 742 mmHg 84%
    14:00 +22°C° 1.4 mm 4 mps 742 mmHg 86%
    15:00 +22°C° 1.3 mm 3 mps 742 mmHg 88%
    16:00 +21°C° 1.3 mm 3 mps 742 mmHg 89%
    17:00 +21°C° 1.3 mm 3 mps 743 mmHg 91%
    18:00 +20°C° 0.5 mm 2 mps 743 mmHg 93%
    19:00 +19°C° 0.5 mm 2 mps 743 mmHg 95%
    20:00 +18°C° 0.5 mm 2 mps 743 mmHg 97%
    21:00 +17°C° 0.2 mm 2 mps 743 mmHg 97%
    22:00 +17°C° 0.2 mm 2 mps 744 mmHg 98%
    23:00 +17°C° 0.2 mm 2 mps 744 mmHg 98%

    Tomorrow, 16 August, Thursday

    Time Temperature Precipitation Wind Pressure Humidity
    00:00 +16°C° 0 mm 2 mps 744 mmHg 98%
    01:00 +16°C° 0 mm 2 mps 745 mmHg 98%
    02:00 +16°C° 0 mm 1 mps 745 mmHg 98%
    03:00 +16°C° 0 mm 1 mps 745 mmHg 98%
    04:00 +16°C° 0 mm 1 mps 746 mmHg 98%
    05:00 +15°C° 0 mm 1 mps 746 mmHg 98%
    06:00 +16°C° 0 mm 1 mps 746 mmHg 96%
    07:00 +16°C° 0 mm 1 mps 747 mmHg 95%
    08:00 +16°C° 0 mm 2 mps 747 mmHg 94%
    09:00 +17°C° 0.1 mm 2 mps 748 mmHg 89%
    10:00 +18°C° 0.1 mm 2 mps 748 mmHg 84%
    11:00 +19°C° 0.1 mm 2 mps 748 mmHg 79%
    12:00 +20°C° 0 mm 2 mps 748 mmHg 72%
    13:00 +21°C° 0 mm 2 mps 749 mmHg 66%
    14:00 +23°C° 0 mm 2 mps 749 mmHg 59%
    15:00 +23°C° 0 mm 2 mps 749 mmHg 60%
    16:00 +21°C° 0 mm 2 mps 749 mmHg 62%
    17:00 +21°C° 0 mm 2 mps 749 mmHg 63%
    18:00 +19°C° 0 mm 2 mps 750 mmHg 70%
    19:00 +17°C° 0 mm 2 mps 750 mmHg 77%
    20:00 +15°C° 0 mm 1 mps 750 mmHg 84%
    21:00 +15°C° 0 mm 1 mps 751 mmHg 86%
    22:00 +14°C° 0 mm 1 mps 751 mmHg 88%
    23:00 +14°C° 0 mm 1 mps 751 mmHg 90%

    Day after tomorrow, 17 August, Friday

    Time Temperature Precipitation Wind Pressure Humidity
    00:00 +13°C° 0 mm 1 mps 752 mmHg 90%
    01:00 +13°C° 0 mm 1 mps 752 mmHg 91%
    02:00 +12°C° 0 mm 1 mps 752 mmHg 92%
    03:00 +12°C° 0 mm 1 mps 753 mmHg 92%
    04:00 +12°C° 0 mm 1 mps 753 mmHg 91%
    05:00 +12°C° 0 mm 1 mps 753 mmHg 91%
    06:00 +14°C° 0 mm 1 mps 754 mmHg 83%
    07:00 +16°C° 0 mm 1 mps 754 mmHg 75%
    08:00 +19°C° 0 mm 1 mps 754 mmHg 66%
    09:00 +20°C° 0 mm 2 mps 754 mmHg 60%
    10:00 +21°C° 0 mm 2 mps 754 mmHg 53%
    11:00 +23°C° 0 mm 2 mps 754 mmHg 47%
    12:00 +24°C° 0 mm 2 mps 754 mmHg 45%
    13:00 +24°C° 0 mm 2 mps 754 mmHg 44%
    14:00 +24°C° 0 mm 2 mps 754 mmHg 42%
    15:00 +24°C° 0 mm 2 mps 753 mmHg 47%
    16:00 +23°C° 0 mm 2 mps 753 mmHg 52%
    17:00 +23°C° 0 mm 1 mps 753 mmHg 57%
    18:00 +20°C° 0 mm 2 mps 753 mmHg 63%
    19:00 +18°C° 0 mm 2 mps 753 mmHg 69%
    20:00 +15°C° 0 mm 2 mps 753 mmHg 75%
    21:00 +15°C° 0 mm 2 mps 754 mmHg 77%
    22:00 +14°C° 0 mm 1 mps 754 mmHg 79%
    23:00 +13°C° 0 mm 1 mps 754 mmHg 81%

    18 August, Saturday

    Time Temperature Precipitation Wind Pressure Humidity
    00:00 +13°C° 0 mm 1 mps 754 mmHg 83%
    01:00 +13°C° 0 mm 1 mps 754 mmHg 85%
    02:00 +12°C° 0 mm 1 mps 754 mmHg 87%
    03:00 +12°C° 0 mm 1 mps 754 mmHg 88%
    04:00 +12°C° 0 mm 1 mps 754 mmHg 89%
    05:00 +12°C° 0 mm 1 mps 754 mmHg 90%
    06:00 +14°C° 0 mm 1 mps 754 mmHg 82%
    07:00 +16°C° 0 mm 1 mps 754 mmHg 75%
    08:00 +20°C° 0 mm 1 mps 755 mmHg 67%
    09:00 +20°C° 0 mm 2 mps 754 mmHg 61%
    10:00 +23°C° 0 mm 2 mps 754 mmHg 56%
    11:00 +24°C° 0 mm 2 mps 754 mmHg 50%
    12:00 +25°C° 0 mm 2 mps 754 mmHg 49%
    13:00 +25°C° 0 mm 2 mps 753 mmHg 47%
    14:00 +26°C° 0 mm 2 mps 753 mmHg 45%
    15:00 +25°C° 0 mm 2 mps 753 mmHg 50%
    16:00 +25°C° 0 mm 2 mps 753 mmHg 54%
    17:00 +25°C° 0 mm 1 mps 752 mmHg 59%
    18:00 +23°C° 0 mm 1 mps 752 mmHg 65%
    19:00 +20°C° 0 mm 1 mps 752 mmHg 71%
    20:00 +18°C° 0 mm 1 mps 752 mmHg 76%
    21:00 +16°C° 0 mm 2 mps 752 mmHg 79%
    22:00 +16°C° 0 mm 2 mps 752 mmHg 81%
    23:00 +15°C° 0 mm 2 mps 752 mmHg 83%

    19 August, Sunday

    Time Temperature Precipitation Wind Pressure Humidity
    00:00 +15°C° 0 mm 2 mps 752 mmHg 85%
    01:00 +14°C° 0 mm 2 mps 752 mmHg 87%
    02:00 +14°C° 0 mm 2 mps 752 mmHg 89%
    03:00 +14°C° 0 mm 2 mps 752 mmHg 89%
    04:00 +13°C° 0 mm 2 mps 752 mmHg 90%
    05:00 +13°C° 0 mm 2 mps 752 mmHg 91%
    06:00 +14°C° 0 mm 3 mps 751 mmHg 83%
    07:00 +17°C° 0 mm 3 mps 751 mmHg 76%
    08:00 +20°C° 0 mm 4 mps 751 mmHg 68%
    09:00 +21°C° 0 mm 4 mps 750 mmHg 63%
    10:00 +23°C° 0 mm 5 mps 750 mmHg 58%
    11:00 +25°C° 0 mm 5 mps 750 mmHg 53%
    12:00 +26°C° 0 mm 5 mps 749 mmHg 53%
    13:00 +26°C° 0 mm 5 mps 749 mmHg 53%
    14:00 +26°C° 0 mm 5 mps 748 mmHg 53%
    15:00 +26°C° 0.2 mm 5 mps 748 mmHg 58%
    16:00 +25°C° 0.2 mm 4 mps 747 mmHg 63%
    17:00 +23°C° 0.2 mm 4 mps 747 mmHg 68%
    18:00 +22°C° 1 mm 4 mps 747 mmHg 74%
    19:00 +21°C° 1 mm 4 mps 747 mmHg 79%
    20:00 +19°C° 1 mm 3 mps 747 mmHg 84%
    21:00 +19°C° 0.3 mm 3 mps 747 mmHg 88%
    22:00 +18°C° 0.3 mm 3 mps 747 mmHg 91%
    23:00 +17°C° 0.3 mm 2 mps 747 mmHg 95%

    20 August, Monday

    Time Temperature Precipitation Wind Pressure Humidity
    00:00 +17°C° 0 mm 2 mps 747 mmHg 96%
    01:00 +16°C° 0 mm 2 mps 747 mmHg 97%
    02:00 +15°C° 0 mm 2 mps 747 mmHg 98%
    03:00 +15°C° 0 mm 2 mps 747 mmHg 98%
    04:00 +14°C° 0 mm 2 mps 747 mmHg 98%
    05:00 +14°C° 0 mm 2 mps 747 mmHg 98%
    06:00 +15°C° 0 mm 2 mps 748 mmHg 93%
    07:00 +16°C° 0 mm 2 mps 748 mmHg 88%
    08:00 +17°C° 0 mm 2 mps 748 mmHg 83%
    09:00 +19°C° 0.1 mm 2 mps 748 mmHg 75%
    10:00 +20°C° 0.1 mm 2 mps 748 mmHg 68%
    11:00 +21°C° 0.1 mm 3 mps 748 mmHg 60%
    12:00 +21°C° 0 mm 3 mps 749 mmHg 57%
    13:00 +22°C° 0 mm 3 mps 749 mmHg 54%
    14:00 +22°C° 0 mm 3 mps 749 mmHg 51%
    15:00 +23°C° 0 mm 2 mps 749 mmHg 55%
    16:00 +21°C° 0 mm 2 mps 749 mmHg 58%
    17:00 +22°C° 0 mm 1 mps 749 mmHg 61%
    18:00 +20°C° 0 mm 1 mps 749 mmHg 66%
    19:00 +18°C° 0 mm 1 mps 749 mmHg 70%
    20:00 +15°C° 0 mm 1 mps 749 mmHg 75%
    21:00 +15°C° 0 mm 1 mps 749 mmHg 75%
    22:00 +15°C° 0 mm 1 mps 749 mmHg 75%
    23:00 +15°C° 0 mm 1 mps 749 mmHg 75%
    Show more